Date String (YYYY-MM-DD hh:mm:ss) UTC,Instrument flags,Ambient pressure (hPa),Sample flow (lpm),Bypass flow (lpm),Sample temperature (°C),Ambient temperature (°C),ASC tube jacket temperature (°C),LED temperature (°C),Box temperature (°C),Sample RH (%),Span deviation,Mass concentration (μg/m³),Mass concentration (μg/m³),Mass concentration (μg/m³)
DateTimeUTC,F1_M11,P_M11,Q1_M11,Q2_M11,T1_M11,T2_M11,T3_M11,T4_M11,T5_M11,U1_M11,ZSPAN_M11,X0_M11,X2_M11,X1_M11
2022-12-03 13:00:00,,0831.7,5.00,0.00,22.1,21.0,00.0,31.0,23.9,07.6,0000.0,0009.02,0002.58,0001.74
2022-12-03 13:01:00,,0831.7,5.01,0.00,22.1,20.5,00.0,31.0,23.7,07.6,0000.0,0009.00,0002.61,0001.75
2022-12-03 13:02:00,,0831.7,5.00,0.00,22.0,20.2,00.0,31.0,23.6,07.7,0000.0,0009.15,0002.64,0001.77
2022-12-03 13:03:00,,0831.7,5.00,0.00,21.9,19.8,00.0,31.0,23.5,07.7,0000.0,0009.23,0002.65,0001.78
2022-12-03 13:04:00,,0831.7,4.99,0.00,21.8,19.5,00.0,31.0,23.3,07.7,0000.0,0009.07,0002.69,0001.77
2022-12-03 13:05:00,,0831.7,5.02,0.00,21.8,20.1,00.0,30.9,23.4,07.8,0000.0,0009.33,0002.73,0001.76
2022-12-03 13:06:00,,0831.7,5.00,0.00,21.9,21.2,00.0,30.8,23.7,07.7,0000.0,0009.37,0002.78,0001.77
2022-12-03 13:07:00,,0831.8,5.00,0.00,22.0,22.1,00.0,30.8,23.9,07.7,0000.0,0009.48,0002.79,0001.77
2022-12-03 13:08:00,,0831.8,4.99,0.00,22.1,21.7,00.0,30.9,23.9,07.7,0000.0,0009.49,0002.83,0001.77
2022-12-03 13:09:00,,0832.0,4.99,0.00,22.0,21.0,00.0,30.9,23.7,07.8,0000.0,0008.81,0002.78,0001.75
2022-12-03 13:10:00,,0831.8,5.01,0.00,21.9,20.2,00.0,30.9,23.4,07.8,0000.0,0008.20,0002.78,0001.75
2022-12-03 13:11:00,,0831.7,5.00,0.00,21.7,19.6,00.0,30.8,23.2,07.8,0000.0,0008.39,0002.78,0001.74
2022-12-03 13:12:00,,0831.7,5.00,0.00,21.7,19.3,00.0,30.8,23.1,07.9,0000.0,0008.50,0002.79,0001.74
2022-12-03 13:13:00,,0831.7,4.99,0.00,21.6,19.1,00.0,30.8,23.0,07.9,0000.0,0008.23,0002.79,0001.74
2022-12-03 13:14:00,,0831.7,5.00,0.00,21.5,19.2,00.0,30.7,23.0,07.9,0000.0,0008.57,0002.81,0001.72
2022-12-03 13:15:00,,0831.7,5.01,0.00,21.6,20.3,00.0,30.6,23.2,07.9,0000.0,0008.90,0002.82,0001.73
2022-12-03 13:16:00,,0831.8,4.99,0.00,21.7,21.5,00.0,30.6,23.5,07.9,0000.0,0008.42,0002.78,0001.73
2022-12-03 13:17:00,,0831.8,5.00,0.00,21.8,21.9,00.0,30.6,23.7,07.8,0000.0,0008.17,0002.76,0001.72
2022-12-03 13:18:00,,0831.7,4.99,0.00,21.8,21.4,00.0,30.7,23.6,07.8,0000.0,0007.99,0002.78,0001.72
2022-12-03 13:19:00,,0831.8,5.00,0.00,21.8,20.8,00.0,30.7,23.5,07.8,0000.0,0008.07,0002.81,0001.72
2022-12-03 13:20:00,,0831.9,5.00,0.00,21.7,20.2,00.0,30.7,23.2,07.8,0000.0,0009.24,0002.87,0001.73
2022-12-03 13:21:00,,0831.7,5.00,0.00,21.6,19.6,00.0,30.7,23.0,07.9,0000.0,0010.08,0002.89,0001.74
2022-12-03 13:22:00,,0831.7,5.00,0.00,21.5,19.2,00.0,30.6,22.8,07.9,0000.0,0010.13,0002.90,0001.74
2022-12-03 13:23:00,,0831.6,5.00,0.00,21.4,18.9,00.0,30.6,22.7,07.9,0000.0,0009.97,0002.88,0001.73
2022-12-03 13:24:00,,0831.7,5.02,0.00,21.3,19.4,00.0,30.5,22.8,07.9,0000.0,0010.29,0002.87,0001.71
2022-12-03 13:25:00,,0831.8,5.00,0.00,21.4,20.8,00.0,30.4,23.2,07.9,0000.0,0009.90,0002.85,0001.71
2022-12-03 13:26:00,,0831.7,4.99,0.00,21.5,21.4,00.0,30.4,23.4,07.8,0000.0,0009.25,0002.75,0001.70
2022-12-03 13:27:00,,0831.6,4.99,0.00,21.5,20.7,00.0,30.5,23.2,07.9,0000.0,0009.33,0002.75,0001.69
2022-12-03 13:28:00,,0831.5,5.00,0.00,21.5,20.3,00.0,30.5,23.1,07.9,0000.0,0009.31,0002.76,0001.69
2022-12-03 13:29:00,,0831.6,5.00,0.00,21.4,20.1,00.0,30.5,23.1,07.8,0000.0,0009.31,0002.71,0001.69
2022-12-03 13:30:00,,0831.6,5.00,0.00,21.4,19.8,00.0,30.5,23.0,07.8,0000.0,0009.40,0002.72,0001.69
2022-12-03 13:31:00,,0831.7,5.00,0.00,21.3,19.4,00.0,30.5,22.8,07.9,0000.0,0008.33,0002.71,0001.68
2022-12-03 13:32:00,,0831.6,5.01,0.00,21.2,19.1,00.0,30.4,22.7,07.9,0000.0,0007.49,0002.68,0001.67
2022-12-03 13:33:00,,0831.6,5.00,0.00,21.3,20.1,00.0,30.3,22.9,07.9,0000.0,0007.47,0002.74,0001.67
2022-12-03 13:34:00,,0831.7,5.00,0.00,21.4,21.3,00.0,30.3,23.2,07.9,0000.0,0007.39,0002.80,0001.67
2022-12-03 13:35:00,,0831.7,4.99,0.00,21.5,21.9,00.0,30.3,23.4,07.8,0000.0,0006.86,0002.83,0001.68
2022-12-03 13:36:00,,0831.7,4.99,0.00,21.6,21.3,00.0,30.4,23.4,07.8,0000.0,0006.79,0002.82,0001.69
2022-12-03 13:37:00,,0831.7,5.00,0.00,21.5,20.7,00.0,30.4,23.2,07.8,0000.0,0006.96,0002.89,0001.69
2022-12-03 13:38:00,,0831.6,5.00,0.00,21.5,20.2,00.0,30.4,23.1,07.8,0000.0,0006.97,0002.91,0001.70
2022-12-03 13:39:00,,0831.7,4.99,0.00,21.4,19.8,00.0,30.4,23.0,07.8,0000.0,0007.29,0002.96,0001.69
2022-12-03 13:40:00,,0831.7,5.00,0.00,21.3,19.3,00.0,30.4,22.8,07.8,0000.0,0007.34,0002.95,0001.70
2022-12-03 13:41:00,,0831.7,5.00,0.00,21.3,19.2,00.0,30.4,22.8,07.9,0000.0,0007.11,0002.94,0001.72
2022-12-03 13:42:00,,0831.7,5.01,0.00,21.3,20.1,00.0,30.3,22.9,07.9,0000.0,0007.03,0002.94,0001.75
2022-12-03 13:43:00,,0831.7,4.99,0.00,21.4,21.3,00.0,30.3,23.2,07.8,0000.0,0007.07,0002.96,0001.76
2022-12-03 13:44:00,,0831.7,4.99,0.00,21.5,21.3,00.0,30.3,23.3,07.8,0000.0,0007.08,0002.91,0001.77
2022-12-03 13:45:00,,0831.7,4.99,0.00,21.5,20.8,00.0,30.4,23.3,07.8,0000.0,0008.05,0002.96,0001.79
2022-12-03 13:46:00,,0831.6,5.00,0.00,21.5,20.3,00.0,30.4,23.1,07.8,0000.0,0008.04,0002.95,0001.80
2022-12-03 13:47:00,,0831.7,5.01,0.00,21.4,20.0,00.0,30.4,23.0,07.8,0000.0,0008.03,0002.93,0001.81
2022-12-03 13:48:00,,0831.7,5.00,0.00,21.4,19.5,00.0,30.4,22.9,07.8,0000.0,0007.94,0002.93,0001.83
2022-12-03 13:49:00,,0831.6,4.99,0.00,21.3,19.2,00.0,30.4,22.8,07.8,0000.0,0008.51,0002.97,0001.85
2022-12-03 13:50:00,,0831.6,5.00,0.00,21.2,18.9,00.0,30.3,22.7,07.9,0000.0,0008.62,0002.96,0001.86
2022-12-03 13:51:00,,0831.7,5.02,0.00,21.2,19.8,00.0,30.3,22.8,07.9,0000.0,0009.45,0002.97,0001.87
2022-12-03 13:52:00,,0831.8,4.99,0.00,21.4,21.0,00.0,30.2,23.1,07.8,0000.0,0009.65,0003.00,0001.85
2022-12-03 13:53:00,,0831.7,5.00,0.00,21.5,21.7,00.0,30.2,23.3,07.8,0000.0,0010.23,0003.05,0001.85
2022-12-03 13:54:00,,0831.7,4.99,0.00,21.5,21.2,00.0,30.3,23.3,07.8,0000.0,0011.18,0003.10,0001.85
2022-12-03 13:55:00,,0831.7,4.99,0.00,21.5,20.8,00.0,30.3,23.2,07.8,0000.0,0011.09,0003.09,0001.85
2022-12-03 13:56:00,,0831.7,5.00,0.00,21.4,20.3,00.0,30.3,23.1,07.8,0000.0,0010.39,0003.06,0001.85
2022-12-03 13:57:00,,0831.6,5.01,0.00,21.4,20.0,00.0,30.4,23.0,07.8,0000.0,0010.44,0003.02,0001.84
2022-12-03 13:58:00,,0831.7,5.01,0.00,21.4,19.9,00.0,30.3,23.0,07.8,0000.0,0011.05,0003.05,0001.84
2022-12-03 13:59:00,,0831.7,5.00,0.00,21.3,19.6,00.0,30.3,22.9,07.7,0000.0,0011.42,0002.98,0001.82
